Estherville, IA

4:04 PM CDT on March 25, 2017 (GMT -0500)
Estherville Municipal

Weather History for KEST - September, 2011

Change the Weather History Date:

Friday, September 23, 2011

  Actual Average Record
Temperature  
Mean Temperature 50 °F 58 °F  
Max Temperature 67 °F 71 °F 86 °F (2007)
Min Temperature 33 °F 45 °F 25 °F (1974)
Degree Days  
Heating Degree Days 15 8  
Month to date heating degree days 165 107  
Since 1 July heating degree days 167 139  
Cooling Degree Days 0 1  
Month to date cooling degree days 45 43  
Year to date cooling degree days 745 583  
Moisture  
Dew Point 36 °F    
Average Humidity 66    
Maximum Humidity 100    
Minimum Humidity 31    
Precipitation  
Precipitation 0.00 in 0.12 in 1.71 in (2010)
Month to date precipitation 0.58 2.55  
Year to date precipitation 18.76  
Sea Level Pressure  
Sea Level Pressure 30.12 in    
Wind  
Wind Speed 4 mph (NNW)    
Max Wind Speed 8 mph    
Max Gust Speed 12 mph    
Visibility 10 miles    
Events      
T = Trace of Precipitation, MM = Missing Value Source: NWS Daily Summary

Daily Weather History Graph

Daily Weather History Graph

Search for Another Location

Airport or City:

Trip Planner

Search our weather history database for the weather conditions in past years. The results will help you decide how hot, cold, wet, or windy it might be!

Date:

Astronomy

Sep. 23, 2011 Rise Set
Actual Time 7:07 AM CDT 7:14 PM CDT
Civil Twilight 6:38 AM CDT 7:43 PM CDT
Nautical Twilight 6:05 AM CDT 8:16 PM CDT
Astronomical Twilight 5:30 AM CDT 8:50 PM CDT
Moon 2:27 AM CDT (9/23) 4:52 PM CDT (9/23)
Length of Visible Light 13h 04m
Length of Day
12h 07m
Waning Crescent, 19% of the Moon is Illuminated
Sep 23
Waning Crescent
Sep 27
New
Oct 3
First Quarter
Oct 11
Full
Oct 19
Last Quarter

Hourly Weather History & Observations

Time (CDT) Temp. Windchill Dew Point Humidity Pressure Visibility Wind Dir Wind Speed Gust Speed Precip Events Conditions
12:52 AM 36.0 °F - 34.0 °F 93% 30.18 in 10.0 mi Calm Calm - N/A   Clear
2:52 AM 35.1 °F 29.3 °F 33.1 °F 92% 30.18 in 10.0 mi WNW 6.9 mph - N/A   Clear
3:52 AM 35.1 °F 29.3 °F 34.0 °F 96% 30.18 in 10.0 mi WNW 6.9 mph - N/A   Clear
4:52 AM 36.0 °F 31.1 °F 33.1 °F 89% 30.18 in 10.0 mi WNW 5.8 mph - N/A   Clear
5:52 AM 35.1 °F 32.2 °F 33.1 °F 92% 30.18 in 10.0 mi WNW 3.5 mph - N/A   Clear
6:52 AM 35.1 °F 32.2 °F 33.1 °F 92% 30.18 in 10.0 mi WNW 3.5 mph - N/A   Clear
8:52 AM 46.0 °F 44.8 °F 39.9 °F 79% 30.19 in 10.0 mi WNW 3.5 mph - N/A   Clear
9:52 AM 54.0 °F - 41.0 °F 62% 30.19 in 10.0 mi North 4.6 mph - N/A   Clear
10:52 AM 57.0 °F - 37.9 °F 49% 30.18 in 10.0 mi North 4.6 mph - N/A   Clear
11:52 AM 60.1 °F - 37.0 °F 42% 30.16 in 10.0 mi NNE 4.6 mph - N/A   Clear
12:52 PM 61.0 °F - 36.0 °F 39% 30.13 in 10.0 mi NNW 5.8 mph - N/A   Clear
1:52 PM 62.1 °F - 35.1 °F 37% 30.12 in 10.0 mi Calm Calm - N/A   Clear
2:52 PM 64.0 °F - 36.0 °F 35% 30.10 in 10.0 mi Variable 5.8 mph - N/A   Clear
3:52 PM 64.9 °F - 36.0 °F 34% 30.07 in 10.0 mi Variable 3.5 mph - N/A   Clear
4:52 PM 64.9 °F - 34.0 °F 32% 30.05 in 10.0 mi Calm Calm - N/A   Clear
5:52 PM 66.0 °F - 35.1 °F 32% 30.04 in 10.0 mi Calm Calm - N/A   Clear
6:52 PM 59.0 °F - 37.9 °F 46% 30.05 in 10.0 mi East 3.5 mph - N/A   Clear
7:52 PM 52.0 °F - 37.0 °F 57% 30.06 in 10.0 mi East 4.6 mph - N/A   Clear
8:52 PM 51.1 °F - 37.0 °F 59% 30.05 in 10.0 mi East 5.8 mph - N/A   Clear
10:52 PM 45.0 °F 42.6 °F 39.0 °F 80% 30.06 in 10.0 mi East 4.6 mph - N/A   Clear
11:52 PM 43.0 °F - 37.9 °F 82% 30.06 in 10.0 mi Calm Calm - N/A   Clear